Tracking 22836 objects as of 18-Apr-2021
HD Live streaming from Space Station
objects crossing your sky now

DELTA 1 DEB

Track DELTA 1 DEB now!
10-day predictions


NORAD ID: 7020
Int'l Code: 1973-086L
Perigee: 1,493.2 km
Apogee: 1,753.2 km
Inclination: 102.2 °
Period: 118.6 minutes
Semi major axis: 7994 km
RCS: 0.2266 m2 (medium)
Launch date: November 6, 1973
Source: United States (US)
Launch site: AIR FORCE WESTERN TEST RANGE (AFWTR)

Note: This is SATELLITE DEBRIS
aabbcc
Your satellite tracking list
Your tracking list is empty




NASA's NSSDC Master Catalog

Two Line Element Set (TLE):
1 07020U 73086L   21107.86919635  .00000141  00000-0  18155-2 0  9999
2 07020 102.2071 229.9486 0162603 136.1018 340.9052 12.14622110102592
Source of the keplerian elements: AFSPC